Regional Weather Roundup
Issued by NWS Sioux Falls, SD

Home | Current Version | Previous Version | Text Only | Print | Product List | Glossary Off
Versions: 1 2 3 4 5 6 7 8 9 10 11 12 13 14 15 16 17 18 19 20 21 22 23 24 25 26 27 28 29 30 31 32 33 34 35 36 37 38 39 40 41 42 43 44 45 46 47 48 49 50

000
ASUS43 KFSD 210310
RWRFSD

WEATHER ROUNDUP FOR SE SOUTH DAKOTA/SW MINNESOTA/NW IOWA
NATIONAL WEATHER SERVICE SIOUX FALLS SD
1000 PM CDT WED AUG 20 2014

NOTE: "FAIR" INDICATES FEW OR NO CLOUDS BELOW 12,000 FEET WITH NO
SIGNIFICANT WEATHER AND OR OBSTRUCTIONS TO VISIBILITY.


SDZ038>040-050-052>070-210400-
SOUTHEAST SOUTH DAKOTA

CITY           SKY/WX    TMP DP  RH WIND       PRES   REMARKS
CHAMBERLAIN    CLEAR     74  72  91 SE13      29.68S
HURON          PTCLDY    75  69  81 SE13      29.69F
MADISON        FAIR      72  72 100 SE10G16   29.78S
MITCHELL       MOCLDY    76  72  87 SE7       29.71S
SIOUX FALLS    CLOUDY    73  70  90 E6        29.77S
WINNER         FAIR      78  68  71 SE8       29.69R
YANKTON        CLOUDY    75  73  94 E6        29.73S
$$

MNZ071-072-080-081-089-090-097-098-210400-
SOUTHWEST MINNESOTA

CITY           SKY/WX    TMP DP  RH WIND       PRES   REMARKS
FAIRMONT       CLOUDY    72  64  78 SE9       29.85S
JACKSON        CLOUDY    70  66  88 E6        29.85S
LUVERNE        CLOUDY    72  68  88 SE3       29.80S
MARSHALL       CLOUDY    75  68  78 SE12      29.79S
MONTEVIDEO     CLOUDY    73  70  88 S9        29.81S
PIPESTONE      CLOUDY    72  68  88 SE8       29.80F
REDWOOD FALLS  CLOUDY    75  69  81 SE9       29.82R
TRACY          CLOUDY    73  70  88 SE7       29.82S
WINDOM         CLOUDY    72  68  88 E6        29.84S
WORTHINGTON    CLOUDY    70  12  11 E6        29.84S
$$

IAZ001>003-012>014-020>022-031-032-NEZ013-014-SDZ071-210400-
NORTHWEST IOWA

CITY           SKY/WX    TMP DP  RH WIND       PRES   REMARKS
CHEROKEE       PTCLDY    71  71 100 CALM      29.81S
DENISON        PTCLDY    79  75  89 S13G23    29.79S
ESTHERVILLE    CLOUDY    69  69 100 E6        29.84R
LE MARS        PTCLDY    77  75  94 SE10      29.78S
ORANGE CITY    MOCLDY    73  72  94 SE5       29.80S
SHELDON        CLOUDY    72  72 100 SE9       29.80S
SIOUX CITY     MOCLDY    79  75  87 SE10      29.76S
SPENCER        CLOUDY    72  69  90 SE8       29.83R
STORM LAKE     PTCLDY    70  70 100 E3        29.84S FOG
$$

ABBREVIATIONS USED IN REMARKS
   TC - TEMPERATURE IN CELSIUS
  WCI - WIND CHILL INDEX
   HX - HEAT INDEX
  VSB - VISIBILITY




USA.gov is the U.S. government's official web portal to all federal, state and local government web resources and services.